| time (UTC) | temp F | wind direction | speed MPH | gust MPH | rain 1hr in | rain 24hr in | rain mn in | humidity % | barometer mb |
| 20260906194506 | 98 | 142 | 3.0 | 9.0 | 0.00 | 0.00 | 0.00 | 39 | 1009.5 |
| 20260906194005 | 98 | 76 | 2.0 | 8.0 | 0.00 | 0.00 | 0.00 | 41 | 1009.4 |
| 20260906193506 | 97 | 158 | 2.0 | 9.0 | 0.00 | 0.00 | 0.00 | 41 | 1009.6 |
| 20260906193006 | 97 | 202 | 4.0 | 9.0 | 0.00 | 0.00 | 0.00 | 40 | 1009.6 |
| 20260906192504 | 95 | 163 | 1.0 | 9.0 | 0.00 | 0.00 | 0.00 | 42 | 1009.7 |
| 20260906192004 | 95 | 109 | 2.0 | 9.0 | 0.00 | 0.00 | 0.00 | 42 | 1009.8 |
| 20260906191503 | 96 | 186 | 3.0 | 9.0 | 0.00 | 0.00 | 0.00 | 41 | 1009.8 |
| 20260906191002 | 97 | 51 | 3.0 | 9.0 | 0.00 | 0.00 | 0.00 | 41 | 1009.8 |
| 20260906190502 | 97 | 192 | 3.0 | 11.0 | 0.00 | 0.00 | 0.00 | 41 | 1009.9 |
| 20260906190002 | 95 | 232 | 7.0 | 11.0 | 0.00 | 0.00 | 0.00 | 42 | 1009.9 |
| 20260906185600 | 95 | 221 | 4.0 | 9.0 | 0.00 | 0.00 | 0.00 | 43 | 1010.0 |
| 20260906185502 | 95 | 131 | 4.0 | 9.0 | 0.00 | 0.00 | 0.00 | 45 | 1010.1 |
| 20260906185100 | 95 | 95 | 2.0 | 8.0 | 0.00 | 0.00 | 0.00 | 44 | 1010.0 |
| 20260906184600 | 96 | 55 | 3.0 | 8.0 | 0.00 | 0.00 | 0.00 | 45 | 1010.0 |
| 20260906184059 | 96 | 51 | 2.0 | 7.0 | 0.00 | 0.00 | 0.00 | 46 | 1010.2 |
| 20260906183558 | 95 | 158 | 2.0 | 7.0 | 0.00 | 0.00 | 0.00 | 47 | 1010.2 |
| 20260906183102 | 94 | 113 | 2.0 | 10.0 | 0.00 | 0.00 | 0.00 | 46 | 1010.2 |
| 20260906182557 | 93 | 156 | 5.0 | 10.0 | 0.00 | 0.00 | 0.00 | 47 | 1010.3 |
| 20260906182057 | 94 | 262 | 2.0 | 8.0 | 0.00 | 0.00 | 0.00 | 49 | 1010.2 |
| 20260906181559 | 93 | 252 | 1.0 | 8.0 | 0.00 | 0.00 | 0.00 | 50 | 1010.3 |
| 20260906181056 | 92 | 145 | 4.0 | 8.0 | 0.00 | 0.00 | 0.00 | 50 | 1010.4 |
| 20260906180557 | 93 | 140 | 1.0 | 12.0 | 0.00 | 0.00 | 0.00 | 49 | 1010.5 |
| 20260906180057 | 95 | 227 | 2.0 | 9.0 | 0.00 | 0.00 | 0.00 | 49 | 1010.7 |
| 20260906175554 | 93 | 292 | 2.0 | 6.0 | 0.00 | 0.00 | 0.00 | 50 | 1010.7 |
| 20260906175056 | 92 | 72 | 2.0 | 6.0 | 0.00 | 0.00 | 0.00 | 51 | 1010.8 |
| 20260906174607 | 93 | 22 | 2.0 | 9.0 | 0.00 | 0.00 | 0.00 | 51 | 1011.0 |
| 20260906174052 | 94 | 206 | 3.0 | 9.0 | 0.00 | 0.00 | 0.00 | 50 | 1011.0 |
| 20260906173550 | 93 | 325 | 2.0 | 6.0 | 0.00 | 0.00 | 0.00 | 50 | 1011.0 |
| 20260906173049 | 93 | 159 | 3.0 | 6.0 | 0.00 | 0.00 | 0.00 | 50 | 1011.2 |
| 20260906172548 | 91 | 246 | 1.0 | 6.0 | 0.00 | 0.00 | 0.00 | 53 | 1011.4 |
| 20260906172047 | 90 | 254 | 3.0 | 8.0 | 0.00 | 0.00 | 0.00 | 54 | 1011.5 |
| 20260906171547 | 91 | 229 | 3.0 | 8.0 | 0.00 | 0.00 | 0.00 | 54 | 1011.5 |
| 20260906171046 | 92 | 179 | 3.0 | 7.0 | 0.00 | 0.00 | 0.00 | 53 | 1011.7 |
| 20260906170546 | 91 | 186 | 2.0 | 9.0 | 0.00 | 0.00 | 0.00 | 54 | 1011.6 |
| 20260906170044 | 91 | 178 | 4.0 | 10.0 | 0.00 | 0.00 | 0.00 | 54 | 1011.6 |
| 20260906165544 | 92 | 191 | 2.0 | 6.0 | 0.00 | 0.00 | 0.00 | 54 | 1011.7 |
| 20260906165042 | 91 | 230 | 0.0 | 6.0 | 0.00 | 0.00 | 0.00 | 55 | 1011.8 |
| 20260906164543 | 91 | 233 | 1.0 | 5.0 | 0.00 | 0.00 | 0.00 | 55 | 1011.8 |
| 20260906164040 | 90 | 57 | 1.0 | 5.0 | 0.00 | 0.00 | 0.00 | 56 | 1011.7 |
| 20260906163544 | 90 | 221 | 2.0 | 5.0 | 0.00 | 0.00 | 0.00 | 57 | 1011.7 |
| 20260906163048 | 89 | 175 | 2.0 | 5.0 | 0.00 | 0.00 | 0.00 | 57 | 1011.7 |
| 20260906162538 | 89 | 257 | 1.0 | 6.0 | 0.00 | 0.00 | 0.00 | 57 | 1011.7 |
| 20260906162037 | 89 | 248 | 2.0 | 9.0 | 0.00 | 0.00 | 0.00 | 58 | 1011.7 |
| 20260906161542 | 89 | 329 | 4.0 | 9.0 | 0.00 | 0.00 | 0.00 | 58 | 1011.7 |
| 20260906161134 | 89 | 321 | 2.0 | 6.0 | 0.00 | 0.00 | 0.00 | 58 | 1011.7 |
| 20260906160534 | 88 | 181 | 2.0 | 6.0 | 0.00 | 0.00 | 0.00 | 58 | 1011.8 |
| 20260906160033 | 88 | 236 | 1.0 | 5.0 | 0.00 | 0.00 | 0.00 | 59 | 1011.7 |
| 20260906155532 | 88 | 171 | 0.0 | 7.0 | 0.00 | 0.00 | 0.00 | 60 | 1011.7 |
| 20260906155029 | 88 | 238 | 3.0 | 10.0 | 0.00 | 0.00 | 0.00 | 60 | 1011.7 |
| 20260906154528 | 88 | 269 | 2.0 | 5.0 | 0.00 | 0.00 | 0.00 | 60 | 1011.7 |
| 20260906154027 | 87 | 217 | 1.0 | 6.0 | 0.00 | 0.00 | 0.00 | 61 | 1011.6 |
| 20260906153528 | 87 | 153 | 0.0 | 10.0 | 0.00 | 0.00 | 0.00 | 61 | 1011.6 |
| 20260906153024 | 87 | 137 | 4.0 | 10.0 | 0.00 | 0.00 | 0.00 | 61 | 1011.5 |
| 20260906152523 | 87 | 253 | 0.0 | 4.0 | 0.00 | 0.00 | 0.00 | 63 | 1011.5 |
| 20260906152021 | 86 | 198 | 1.0 | 5.0 | 0.00 | 0.00 | 0.00 | 64 | 1011.5 |
| 20260906151520 | 85 | 178 | 1.0 | 6.0 | 0.00 | 0.00 | 0.00 | 64 | 1011.5 |
| 20260906151024 | 85 | 202 | 2.0 | 6.0 | 0.00 | 0.00 | 0.00 | 65 | 1011.5 |
| 20260906150517 | 85 | 241 | 3.0 | 9.0 | 0.00 | 0.00 | 0.00 | 66 | 1011.5 |
| 20260906150021 | 84 | 203 | 1.0 | 7.0 | 0.00 | 0.00 | 0.00 | 68 | 1011.5 |
| 20260906145514 | 84 | 121 | 1.0 | 5.0 | 0.00 | 0.00 | 0.00 | 69 | 1011.5 |
| 20260906145013 | 83 | 185 | 2.0 | 7.0 | 0.00 | 0.00 | 0.00 | 70 | 1011.4 |
| 20260906144512 | 83 | 200 | 2.0 | 7.0 | 0.00 | 0.00 | 0.00 | 70 | 1011.4 |
| 20260906144011 | 83 | 197 | 4.0 | 7.0 | 0.00 | 0.00 | 0.00 | 70 | 1011.6 |
| 20260906143511 | 83 | 157 | 3.0 | 8.0 | 0.00 | 0.00 | 0.00 | 71 | 1011.5 |
| 20260906143011 | 83 | 180 | 3.0 | 8.0 | 0.00 | 0.00 | 0.00 | 72 | 1011.5 |
| 20260906142512 | 83 | 178 | 2.0 | 5.0 | 0.00 | 0.00 | 0.00 | 72 | 1011.4 |
| 20260906142012 | 82 | 263 | 1.0 | 5.0 | 0.00 | 0.00 | 0.00 | 73 | 1011.4 |
| 20260906141511 | 82 | 236 | 2.0 | 5.0 | 0.00 | 0.00 | 0.00 | 75 | 1011.4 |
| 20260906141008 | 82 | 269 | 2.0 | 5.0 | 0.00 | 0.00 | 0.00 | 76 | 1011.3 |
| 20260906140506 | 82 | 167 | 1.0 | 5.0 | 0.00 | 0.00 | 0.00 | 77 | 1011.2 |
| 20260906140010 | 82 | 150 | 0.0 | 5.0 | 0.00 | 0.00 | 0.00 | 79 | 1011.1 |
| 20260906135503 | 81 | 106 | 0.0 | 3.0 | 0.00 | 0.00 | 0.00 | 80 | 1011.1 |
| 20260906135003 | 80 | 142 | 0.0 | 3.0 | 0.00 | 0.00 | 0.00 | 80 | 1011.2 |
| 20260906134631 | 80 | 190 | 1.0 | 3.0 | 0.00 | 0.00 | 0.00 | 81 | 1011.1 |
| 20260906134101 | 80 | 146 | 0.0 | 5.0 | 0.00 | 0.00 | 0.00 | 81 | 1011.0 |
| 20260906133557 | 79 | 146 | 2.0 | 5.0 | 0.00 | 0.00 | 0.00 | 82 | 1010.9 |
| 20260906133100 | 79 | 153 | 2.0 | 4.0 | 0.00 | 0.00 | 0.00 | 82 | 1010.9 |
| 20260906132558 | 79 | 157 | 0.0 | 5.0 | 0.00 | 0.00 | 0.00 | 82 | 1010.8 |
| 20260906132053 | 79 | 161 | 2.0 | 5.0 | 0.00 | 0.00 | 0.00 | 83 | 1010.7 |
| 20260906131553 | 79 | 185 | 1.0 | 3.0 | 0.00 | 0.00 | 0.00 | 83 | 1010.6 |
| 20260906131051 | 78 | 149 | 0.0 | 2.0 | 0.00 | 0.00 | 0.00 | 83 | 1010.6 |
| 20260906130552 | 78 | 149 | 0.0 | 0.0 | 0.00 | 0.00 | 0.00 | 83 | 1010.6 |
| 20260906125553 | 78 | 149 | 0.0 | 2.0 | 0.00 | 0.00 | 0.00 | 83 | 1010.5 |
| 20260906125048 | 78 | 149 | 0.0 | 2.0 | 0.00 | 0.00 | 0.00 | 83 | 1010.5 |
| 20260906124548 | 78 | 149 | 0.0 | 2.0 | 0.00 | 0.00 | 0.00 | 83 | 1010.4 |
| 20260906124051 | 78 | 149 | 0.0 | 2.0 | 0.00 | 0.00 | 0.00 | 83 | 1010.3 |
| 20260906123547 | 78 | 149 | 0.0 | 1.0 | 0.00 | 0.00 | 0.00 | 83 | 1010.2 |
| 20260906123048 | 77 | 149 | 0.0 | 0.0 | 0.00 | 0.00 | 0.00 | 82 | 1010.2 |
| 20260906122545 | 77 | 149 | 0.0 | 1.0 | 0.00 | 0.00 | 0.00 | 82 | 1010.1 |
| 20260906122044 | 78 | 149 | 0.0 | 1.0 | 0.00 | 0.00 | 0.00 | 82 | 1010.0 |
| 20260906121547 | 78 | 149 | 0.0 | 1.0 | 0.00 | 0.00 | 0.00 | 82 | 1010.0 |
| 20260906121046 | 78 | 149 | 0.0 | 1.0 | 0.00 | 0.00 | 0.00 | 82 | 1010.0 |
| 20260906120543 | 78 | 149 | 0.0 | 1.0 | 0.00 | 0.00 | 0.00 | 82 | 1009.9 |
| 20260906120042 | 78 | 149 | 0.0 | 2.0 | 0.00 | 0.00 | 0.00 | 82 | 1009.8 |
| 20260906115544 | 78 | 149 | 0.0 | 5.0 | 0.00 | 0.00 | 0.00 | 82 | 1009.8 |
| 20260906115041 | 78 | 149 | 0.0 | 5.0 | 0.00 | 0.00 | 0.00 | 82 | 1009.9 |
| 20260906114541 | 78 | 126 | 1.0 | 4.0 | 0.00 | 0.00 | 0.00 | 82 | 1009.9 |
| 20260906114041 | 78 | 190 | 1.0 | 3.0 | 0.00 | 0.00 | 0.00 | 81 | 1009.8 |
| 20260906113540 | 78 | 190 | 0.0 | 5.0 | 0.00 | 0.00 | 0.00 | 81 | 1009.8 |
| 20260906113040 | 78 | 190 | 0.0 | 5.0 | 0.00 | 0.00 | 0.00 | 81 | 1009.7 |
| 20260906112540 | 78 | 144 | 1.0 | 5.0 | 0.00 | 0.00 | 0.00 | 81 | 1009.6 |
| 20260906112040 | 78 | 184 | 0.0 | 3.0 | 0.00 | 0.00 | 0.00 | 81 | 1009.4 |
| 20260906111540 | 78 | 184 | 1.0 | 3.0 | 0.00 | 0.00 | 0.00 | 81 | 1009.5 |
| 20260906111041 | 78 | 165 | 1.0 | 6.0 | 0.00 | 0.00 | 0.00 | 80 | 1009.4 |
| 20260906110539 | 78 | 165 | 1.0 | 6.0 | 0.00 | 0.00 | 0.00 | 80 | 1009.3 |
| 20260906110039 | 78 | 132 | 0.0 | 3.0 | 0.00 | 0.00 | 0.00 | 80 | 1009.3 |
| 20260906105538 | 78 | 175 | 0.0 | 5.0 | 0.00 | 0.00 | 0.00 | 80 | 1009.3 |
| 20260906105039 | 78 | 159 | 2.0 | 5.0 | 0.00 | 0.00 | 0.00 | 80 | 1009.3 |
| 20260906104538 | 78 | 138 | 1.0 | 5.0 | 0.00 | 0.00 | 0.00 | 80 | 1009.3 |
| 20260906104040 | 78 | 138 | 3.0 | 5.0 | 0.00 | 0.00 | 0.00 | 80 | 1009.3 |
| 20260906103539 | 78 | 83 | 0.0 | 2.0 | 0.00 | 0.00 | 0.00 | 80 | 1009.0 |
| 20260906103038 | 78 | 83 | 0.0 | 2.0 | 0.00 | 0.00 | 0.00 | 80 | 1008.9 |
| 20260906102538 | 78 | 83 | 0.0 | 2.0 | 0.00 | 0.00 | 0.00 | 80 | 1008.9 |
| 20260906102037 | 78 | 83 | 0.0 | 2.0 | 0.00 | 0.00 | 0.00 | 80 | 1008.8 |
| 20260906101538 | 78 | 83 | 0.0 | 1.0 | 0.00 | 0.00 | 0.00 | 80 | 1008.8 |
| 20260906101037 | 78 | 83 | 0.0 | 0.0 | 0.00 | 0.00 | 0.00 | 80 | 1008.8 |
| 20260906100537 | 78 | 83 | 0.0 | 1.0 | 0.00 | 0.00 | 0.00 | 80 | 1008.8 |
| 20260906100041 | 78 | 83 | 0.0 | 2.0 | 0.00 | 0.00 | 0.00 | 80 | 1008.8 |
| 20260906095539 | 78 | 83 | 0.0 | 2.0 | 0.00 | 0.00 | 0.00 | 80 | 1008.8 |
| 20260906095036 | 78 | 192 | 0.0 | 0.0 | 0.00 | 0.00 | 0.00 | 80 | 1008.8 |
| 20260906094536 | 78 | 192 | 0.0 | 0.0 | 0.00 | 0.00 | 0.00 | 79 | 1008.7 |
| 20260906094035 | 78 | 192 | 0.0 | 1.0 | 0.00 | 0.00 | 0.00 | 79 | 1008.6 |
| 20260906093535 | 78 | 192 | 0.0 | 1.0 | 0.00 | 0.00 | 0.00 | 79 | 1008.5 |
| 20260906093047 | 78 | 192 | 0.0 | 1.0 | 0.00 | 0.00 | 0.00 | 79 | 1008.6 |
| 20260906092534 | 78 | 192 | 0.0 | 0.0 | 0.00 | 0.00 | 0.00 | 79 | 1008.6 |
| 20260906092034 | 79 | 192 | 0.0 | 0.0 | 0.00 | 0.00 | 0.00 | 79 | 1008.6 |
| 20260906091533 | 79 | 192 | 0.0 | 0.0 | 0.00 | 0.00 | 0.00 | 78 | 1008.7 |
| 20260906091033 | 79 | 192 | 0.0 | 0.0 | 0.00 | 0.00 | 0.00 | 78 | 1008.7 |
| 20260906090534 | 79 | 192 | 0.0 | 0.0 | 0.00 | 0.00 | 0.00 | 78 | 1008.8 |
| 20260906090033 | 79 | 192 | 0.0 | 1.0 | 0.00 | 0.00 | 0.00 | 78 | 1008.7 |
| 20260906085531 | 79 | 192 | 0.0 | 1.0 | 0.00 | 0.00 | 0.00 | 78 | 1008.8 |
| 20260906085029 | 79 | 192 | 0.0 | 0.0 | 0.00 | 0.00 | 0.00 | 77 | 1008.8 |
| 20260906084529 | 79 | 192 | 0.0 | 0.0 | 0.00 | 0.00 | 0.00 | 77 | 1008.9 |
| 20260906084032 | 80 | 192 | 0.0 | 0.0 | 0.00 | 0.00 | 0.00 | 77 | 1008.9 |
| 20260906083527 | 80 | 192 | 0.0 | 0.0 | 0.00 | 0.00 | 0.00 | 77 | 1008.9 |
| 20260906083029 | 80 | 192 | 0.0 | 3.0 | 0.00 | 0.00 | 0.00 | 77 | 1008.8 |
| 20260906082526 | 80 | 192 | 0.0 | 3.0 | 0.00 | 0.00 | 0.00 | 77 | 1008.8 |
| 20260906082026 | 80 | 149 | 0.0 | 5.0 | 0.00 | 0.00 | 0.00 | 77 | 1008.9 |
| 20260906081543 | 80 | 140 | 2.0 | 4.0 | 0.00 | 0.00 | 0.00 | 77 | 1009.1 |
| 20260906081024 | 80 | 140 | 0.0 | 3.0 | 0.00 | 0.00 | 0.00 | 77 | 1009.1 |
| 20260906080524 | 80 | 207 | 1.0 | 4.0 | 0.00 | 0.00 | 0.00 | 77 | 1009.2 |
| 20260906080022 | 80 | 182 | 2.0 | 4.0 | 0.00 | 0.00 | 0.00 | 77 | 1009.4 |
| 20260906075521 | 80 | 194 | 2.0 | 4.0 | 0.00 | 0.00 | 0.00 | 76 | 1009.5 |
| 20260906075021 | 80 | 163 | 1.0 | 5.0 | 0.00 | 0.00 | 0.00 | 76 | 1009.4 |
| 20260906074521 | 80 | 191 | 1.0 | 5.0 | 0.00 | 0.00 | 0.00 | 76 | 1009.4 |
| 20260906074020 | 80 | 211 | 0.0 | 5.0 | 0.00 | 0.00 | 0.00 | 76 | 1009.4 |
| 20260906073519 | 80 | 188 | 2.0 | 5.0 | 0.00 | 0.00 | 0.00 | 76 | 1009.5 |
| 20260906073035 | 80 | 209 | 1.0 | 4.0 | 0.00 | 0.00 | 0.00 | 76 | 1009.6 |
| 20260906072518 | 81 | 205 | 2.0 | 4.0 | 0.00 | 0.00 | 0.00 | 76 | 1009.7 |
| 20260906072017 | 81 | 198 | 1.0 | 4.0 | 0.00 | 0.00 | 0.00 | 75 | 1009.7 |
| 20260906071516 | 81 | 149 | 2.0 | 6.0 | 0.00 | 0.00 | 0.00 | 75 | 1009.8 |
| 20260906071016 | 81 | 181 | 2.0 | 7.0 | 0.00 | 0.00 | 0.00 | 75 | 1009.9 |
| 20260906070514 | 81 | 160 | 3.0 | 8.0 | 0.00 | 0.00 | 0.00 | 74 | 1010.0 |
| 20260906070015 | 81 | 202 | 3.0 | 8.0 | 0.00 | 0.00 | 0.00 | 74 | 1010.1 |
| 20260906065513 | 81 | 140 | 3.0 | 8.0 | 0.00 | 0.00 | 0.00 | 74 | 1010.2 |
| 20260906065011 | 81 | 169 | 2.0 | 8.0 | 0.00 | 0.00 | 0.00 | 73 | 1010.3 |
| 20260906064512 | 81 | 156 | 3.0 | 8.0 | 0.00 | 0.00 | 0.00 | 73 | 1010.3 |
| 20260906064011 | 81 | 163 | 2.0 | 8.0 | 0.00 | 0.00 | 0.00 | 73 | 1010.2 |
| 20260906063516 | 81 | 165 | 0.0 | 9.0 | 0.00 | 0.00 | 0.00 | 73 | 1010.2 |
| 20260906063011 | 81 | 157 | 2.0 | 9.0 | 0.00 | 0.00 | 0.00 | 72 | 1010.2 |
| 20260906062510 | 82 | 153 | 3.0 | 9.0 | 0.00 | 0.00 | 0.00 | 72 | 1010.2 |
| 20260906062008 | 82 | 215 | 3.0 | 10.0 | 0.00 | 0.00 | 0.00 | 72 | 1010.2 |
| 20260906061507 | 82 | 173 | 3.0 | 10.0 | 0.00 | 0.00 | 0.00 | 71 | 1010.3 |
| 20260906061007 | 82 | 158 | 2.0 | 7.0 | 0.00 | 0.00 | 0.00 | 71 | 1010.4 |
| 20260906060507 | 82 | 177 | 2.0 | 8.0 | 0.00 | 0.00 | 0.00 | 70 | 1010.4 |
| 20260906060007 | 82 | 223 | 4.0 | 8.0 | 0.00 | 0.00 | 0.00 | 70 | 1010.4 |
| 20260906055506 | 82 | 144 | 1.0 | 7.0 | 0.00 | 0.00 | 0.00 | 70 | 1010.5 |
| 20260906055007 | 82 | 142 | 3.0 | 8.0 | 0.00 | 0.00 | 0.00 | 70 | 1010.5 |
| 20260906054509 | 82 | 182 | 2.0 | 8.0 | 0.00 | 0.00 | 0.00 | 69 | 1010.5 |
| 20260906054004 | 83 | 165 | 1.0 | 8.0 | 0.00 | 0.00 | 0.00 | 69 | 1010.5 |
| 20260906053504 | 83 | 150 | 2.0 | 5.0 | 0.00 | 0.00 | 0.00 | 69 | 1010.4 |
| 20260906053003 | 83 | 160 | 0.0 | 6.0 | 0.00 | 0.00 | 0.00 | 69 | 1010.4 |
| 20260906052502 | 83 | 180 | 2.0 | 8.0 | 0.00 | 0.00 | 0.00 | 68 | 1010.3 |
| 20260906052002 | 83 | 142 | 3.0 | 8.0 | 0.00 | 0.00 | 0.00 | 68 | 1010.3 |
| 20260906051502 | 83 | 180 | 2.0 | 8.0 | 0.00 | 0.00 | 0.00 | 68 | 1010.4 |
| 20260906051100 | 83 | 157 | 3.0 | 8.0 | 0.00 | 0.00 | 0.00 | 67 | 1010.4 |
| 20260906050558 | 83 | 184 | 3.0 | 8.0 | 0.00 | 0.00 | 0.00 | 67 | 1010.5 |
| 20260906050111 | 84 | 131 | 3.0 | 8.0 | 0.00 | 0.00 | 0.00 | 67 | 1010.6 |
| 20260906045556 | 84 | 103 | 1.0 | 8.0 | 0.00 | 0.00 | 0.00 | 66 | 1010.6 |
| 20260906045057 | 84 | 160 | 2.0 | 8.0 | 0.00 | 0.00 | 0.00 | 66 | 1010.4 |
| 20260906044556 | 84 | 185 | 1.0 | 12.0 | 0.00 | 0.00 | 0.00 | 65 | 1010.4 |
| 20260906044057 | 84 | 145 | 2.0 | 12.0 | 0.00 | 0.00 | 0.00 | 65 | 1010.5 |
| 20260906043555 | 84 | 145 | 2.0 | 9.0 | 0.00 | 0.00 | 0.00 | 64 | 1010.4 |
| 20260906043108 | 84 | 161 | 4.0 | 7.0 | 0.00 | 0.00 | 0.00 | 64 | 1010.4 |
| 20260906042556 | 84 | 121 | 3.0 | 9.0 | 0.00 | 0.00 | 0.00 | 63 | 1010.5 |
| 20260906042055 | 85 | 126 | 3.0 | 9.0 | 0.00 | 0.00 | 0.00 | 63 | 1010.5 |
| 20260906041556 | 85 | 169 | 2.0 | 8.0 | 0.00 | 0.00 | 0.00 | 63 | 1010.5 |
| 20260906041054 | 85 | 147 | 3.0 | 9.0 | 0.00 | 0.00 | 0.00 | 62 | 1010.6 |
| 20260906040555 | 85 | 184 | 3.0 | 9.0 | 0.00 | 0.00 | 0.00 | 61 | 1010.6 |
| 20260906040112 | 85 | 179 | 4.0 | 9.0 | 0.00 | 0.00 | 0.00 | 61 | 1010.4 |
| 20260906035554 | 85 | 153 | 2.0 | 10.0 | 0.00 | 0.00 | 0.00 | 61 | 1010.4 |
| 20260906035055 | 85 | 134 | 3.0 | 15.0 | 0.00 | 0.00 | 0.00 | 61 | 1010.4 |
| 20260906034554 | 85 | 140 | 4.0 | 14.0 | 0.00 | 0.00 | 0.00 | 61 | 1010.4 |
| 20260906034053 | 86 | 152 | 1.0 | 9.0 | 0.00 | 0.00 | 0.00 | 62 | 1010.3 |
| 20260906033555 | 86 | 154 | 2.0 | 10.0 | 0.00 | 0.00 | 0.00 | 61 | 1010.2 |
| 20260906033054 | 86 | 127 | 3.0 | 10.0 | 0.00 | 0.00 | 0.00 | 61 | 1010.1 |
| 20260906032557 | 86 | 155 | 2.0 | 9.0 | 0.00 | 0.00 | 0.00 | 61 | 1009.9 |
| 20260906032155 | 86 | 106 | 3.0 | 9.0 | 0.00 | 0.00 | 0.00 | 60 | 1009.8 |
| 20260906031601 | 86 | 143 | 3.0 | 9.0 | 0.00 | 0.00 | 0.00 | 60 | 1009.7 |
| 20260906031053 | 86 | 150 | 4.0 | 9.0 | 0.00 | 0.00 | 0.00 | 59 | 1009.6 |
| 20260906030553 | 87 | 155 | 4.0 | 9.0 | 0.00 | 0.00 | 0.00 | 59 | 1009.4 |
| 20260906025552 | 87 | 184 | 3.0 | 8.0 | 0.00 | 0.00 | 0.00 | 59 | 1009.3 |
| 20260906025052 | 87 | 119 | 2.0 | 10.0 | 0.00 | 0.00 | 0.00 | 58 | 1009.2 |
| 20260906024552 | 88 | 81 | 3.0 | 10.0 | 0.00 | 0.00 | 0.00 | 58 | 1009.0 |
| 20260906024054 | 88 | 105 | 1.0 | 7.0 | 0.00 | 0.00 | 0.00 | 57 | 1008.9 |
| 20260906023552 | 88 | 102 | 2.0 | 9.0 | 0.00 | 0.00 | 0.00 | 57 | 1008.8 |
| 20260906023106 | 88 | 32 | 3.0 | 11.0 | 0.00 | 0.00 | 0.00 | 56 | 1008.7 |
| 20260906022551 | 89 | 107 | 4.0 | 12.0 | 0.00 | 0.00 | 0.00 | 56 | 1008.6 |
| 20260906022052 | 89 | 132 | 4.0 | 12.0 | 0.00 | 0.00 | 0.00 | 55 | 1008.4 |
| 20260906021551 | 89 | 121 | 2.0 | 9.0 | 0.00 | 0.00 | 0.00 | 55 | 1008.2 |
| 20260906021050 | 90 | 105 | 2.0 | 11.0 | 0.00 | 0.00 | 0.00 | 54 | 1008.1 |
| 20260906020551 | 90 | 109 | 3.0 | 12.0 | 0.00 | 0.00 | 0.00 | 53 | 1008.1 |
| 20260906020051 | 91 | 188 | 2.0 | 12.0 | 0.00 | 0.00 | 0.00 | 52 | 1007.9 |
| 20260906015550 | 91 | 103 | 4.0 | 14.0 | 0.00 | 0.00 | 0.00 | 50 | 1007.9 |
| 20260906015050 | 92 | 145 | 4.0 | 14.0 | 0.00 | 0.00 | 0.00 | 47 | 1007.8 |
| 20260906014604 | 92 | 113 | 2.0 | 6.0 | 0.00 | 0.00 | 0.00 | 47 | 1007.6 |
| 20260906014049 | 92 | 169 | 2.0 | 7.0 | 0.00 | 0.00 | 0.00 | 47 | 1007.6 |
| 20260906013550 | 92 | 131 | 1.0 | 6.0 | 0.00 | 0.00 | 0.00 | 47 | 1007.6 |
| 20260906013051 | 92 | 159 | 1.0 | 4.0 | 0.00 | 0.00 | 0.00 | 46 | 1007.5 |
| 20260906012549 | 93 | 110 | 0.0 | 5.0 | 0.00 | 0.00 | 0.00 | 46 | 1007.5 |
| 20260906012049 | 93 | 90 | 1.0 | 5.0 | 0.00 | 0.00 | 0.00 | 45 | 1007.4 |
| 20260906011555 | 93 | 108 | 2.0 | 11.0 | 0.00 | 0.00 | 0.00 | 44 | 1007.3 |
| 20260906011049 | 93 | 155 | 2.0 | 11.0 | 0.00 | 0.00 | 0.00 | 43 | 1007.2 |
| 20260906010550 | 94 | 102 | 2.0 | 8.0 | 0.00 | 0.00 | 0.00 | 42 | 1007.2 |
| 20260906010049 | 94 | 115 | 1.0 | 6.0 | 0.00 | 0.00 | 0.00 | 40 | 1007.1 |
| 20260906005549 | 94 | 113 | 1.0 | 4.0 | 0.00 | 0.00 | 0.00 | 40 | 1007.1 |
| 20260906005048 | 94 | 109 | 0.0 | 5.0 | 0.00 | 0.00 | 0.00 | 40 | 1007.0 |
| 20260906004553 | 95 | 108 | 1.0 | 5.0 | 0.00 | 0.00 | 0.00 | 41 | 1007.0 |
| 20260906004051 | 95 | 128 | 0.0 | 4.0 | 0.00 | 0.00 | 0.00 | 40 | 1006.9 |
| 20260906003551 | 95 | 150 | 1.0 | 6.0 | 0.00 | 0.00 | 0.00 | 39 | 1007.0 |
| 20260906003052 | 95 | 35 | 2.0 | 7.0 | 0.00 | 0.00 | 0.00 | 40 | 1007.0 |
| 20260906002547 | 96 | 76 | 1.0 | 7.0 | 0.00 | 0.00 | 0.00 | 40 | 1007.0 |
| 20260906002047 | 96 | 65 | 1.0 | 5.0 | 0.00 | 0.00 | 0.00 | 41 | 1006.9 |
| 20260906001546 | 96 | 103 | 0.0 | 8.0 | 0.00 | 0.00 | 0.00 | 41 | 1007.0 |
| 20260906001046 | 96 | 67 | 3.0 | 8.0 | 0.00 | 0.00 | 0.00 | 41 | 1007.0 |
| 20260906000546 | 96 | 54 | 2.0 | 8.0 | 0.00 | 0.00 | 0.00 | 41 | 1007.1 |
| 20260906000049 | 96 | 92 | 3.0 | 7.0 | 0.00 | 0.00 | 0.00 | 40 | 1007.0 |
| 20260905235545 | 96 | 72 | 1.0 | 4.0 | 0.00 | 0.00 | 0.00 | 40 | 1007.0 |
| 20260905235045 | 97 | 130 | 1.0 | 4.0 | 0.00 | 0.00 | 0.00 | 40 | 1006.9 |
| 20260905234553 | 96 | 74 | 1.0 | 7.0 | 0.00 | 0.00 | 0.00 | 40 | 1007.0 |
| 20260905234045 | 97 | 98 | 2.0 | 7.0 | 0.00 | 0.00 | 0.00 | 40 | 1006.9 |
| 20260905233545 | 97 | 39 | 2.0 | 7.0 | 0.00 | 0.00 | 0.00 | 39 | 1007.0 |
| 20260905233045 | 97 | 110 | 4.0 | 8.0 | 0.00 | 0.00 | 0.00 | 39 | 1007.0 |
| 20260905232544 | 97 | 78 | 2.0 | 4.0 | 0.00 | 0.00 | 0.00 | 39 | 1006.9 |
| 20260905232045 | 97 | 112 | 1.0 | 7.0 | 0.00 | 0.00 | 0.00 | 40 | 1006.9 |
| 20260905231546 | 97 | 138 | 2.0 | 7.0 | 0.00 | 0.00 | 0.00 | 40 | 1006.9 |
| 20260905231045 | 97 | 104 | 2.0 | 7.0 | 0.00 | 0.00 | 0.00 | 40 | 1006.9 |
| 20260905230543 | 97 | 178 | 3.0 | 10.0 | 0.00 | 0.00 | 0.00 | 40 | 1006.9 |
| 20260905230044 | 97 | 78 | 2.0 | 5.0 | 0.00 | 0.00 | 0.00 | 40 | 1006.9 |
| 20260905225543 | 97 | 87 | 1.0 | 6.0 | 0.00 | 0.00 | 0.00 | 39 | 1006.9 |
| 20260905225043 | 96 | 50 | 2.0 | 7.0 | 0.00 | 0.00 | 0.00 | 40 | 1007.0 |
| 20260905224548 | 96 | 53 | 2.0 | 5.0 | 0.00 | 0.00 | 0.00 | 40 | 1007.0 |
| 20260905224040 | 95 | 55 | 1.0 | 3.0 | 0.00 | 0.00 | 0.00 | 41 | 1007.1 |
| 20260905223540 | 95 | 145 | 0.0 | 2.0 | 0.00 | 0.00 | 0.00 | 41 | 1007.0 |
| 20260905223040 | 95 | 72 | 0.0 | 4.0 | 0.00 | 0.00 | 0.00 | 41 | 1007.0 |
| 20260905222539 | 95 | 73 | 0.0 | 4.0 | 0.00 | 0.00 | 0.00 | 41 | 1007.1 |
| 20260905222043 | 95 | 64 | 0.0 | 7.0 | 0.00 | 0.00 | 0.00 | 42 | 1007.2 |
| 20260905221542 | 95 | 40 | 2.0 | 7.0 | 0.00 | 0.00 | 0.00 | 42 | 1007.1 |
| 20260905221038 | 95 | 66 | 2.0 | 4.0 | 0.00 | 0.00 | 0.00 | 40 | 1007.1 |
| 20260905220537 | 95 | 90 | 0.0 | 6.0 | 0.00 | 0.00 | 0.00 | 41 | 1007.1 |
| 20260905220037 | 95 | 67 | 2.0 | 13.0 | 0.00 | 0.00 | 0.00 | 42 | 1007.2 |
| 20260905215537 | 96 | 83 | 5.0 | 13.0 | 0.00 | 0.00 | 0.00 | 42 | 1007.2 |
| 20260905215040 | 97 | 5 | 3.0 | 9.0 | 0.00 | 0.00 | 0.00 | 41 | 1007.1 |
| 20260905214537 | 97 | 112 | 3.0 | 8.0 | 0.00 | 0.00 | 0.00 | 42 | 1007.2 |
| 20260905214035 | 96 | 173 | 2.0 | 7.0 | 0.00 | 0.00 | 0.00 | 42 | 1007.3 |
| 20260905213535 | 95 | 191 | 0.0 | 4.0 | 0.00 | 0.00 | 0.00 | 44 | 1007.3 |
| 20260905213035 | 95 | 198 | 1.0 | 6.0 | 0.00 | 0.00 | 0.00 | 44 | 1007.4 |
| 20260905212534 | 95 | 84 | 4.0 | 6.0 | 0.00 | 0.00 | 0.00 | 44 | 1007.5 |
| 20260905212134 | 96 | 87 | 2.0 | 5.0 | 0.00 | 0.00 | 0.00 | 44 | 1007.4 |
| 20260905211533 | 96 | 26 | 1.0 | 6.0 | 0.00 | 0.00 | 0.00 | 43 | 1007.4 |
| 20260905211032 | 98 | 46 | 3.0 | 6.0 | 0.00 | 0.00 | 0.00 | 42 | 1007.5 |
| 20260905210533 | 98 | 36 | 2.0 | 7.0 | 0.00 | 0.00 | 0.00 | 42 | 1007.6 |
| 20260905210032 | 98 | 177 | 3.0 | 7.0 | 0.00 | 0.00 | 0.00 | 41 | 1007.6 |
| 20260905205530 | 99 | 175 | 0.0 | 10.0 | 0.00 | 0.00 | 0.00 | 41 | 1007.6 |
| 20260905205031 | 98 | 53 | 1.0 | 6.0 | 0.00 | 0.00 | 0.00 | 42 | 1007.6 |
| 20260905204528 | 97 | 53 | 3.0 | 7.0 | 0.00 | 0.00 | 0.00 | 43 | 1007.8 |
| 20260905204027 | 97 | 98 | 1.0 | 7.0 | 0.00 | 0.00 | 0.00 | 43 | 1007.9 |
| 20260905203526 | 97 | 58 | 2.0 | 9.0 | 0.00 | 0.00 | 0.00 | 43 | 1008.0 |
| 20260905203026 | 97 | 55 | 4.0 | 9.0 | 0.00 | 0.00 | 0.00 | 42 | 1008.2 |
| 20260905202523 | 97 | 303 | 4.0 | 10.0 | 0.00 | 0.00 | 0.00 | 43 | 1008.2 |
| 20260905202023 | 96 | 67 | 6.0 | 11.0 | 0.00 | 0.00 | 0.00 | 45 | 1008.4 |
| 20260905201522 | 97 | 94 | 4.0 | 11.0 | 0.00 | 0.00 | 0.00 | 44 | 1008.6 |
| 20260905201023 | 97 | 156 | 1.0 | 3.0 | 0.00 | 0.00 | 0.00 | 43 | 1008.6 |
| 20260905200521 | 96 | 76 | 1.0 | 9.0 | 0.00 | 0.00 | 0.00 | 45 | 1008.7 |
| 20260905200020 | 95 | 129 | 3.0 | 9.0 | 0.00 | 0.00 | 0.00 | 45 | 1008.9 |
| 20260905195525 | 95 | 168 | 4.0 | 8.0 | 0.00 | 0.00 | 0.00 | 44 | 1008.9 |
| 20260905195022 | 96 | 195 | 3.0 | 11.0 | 0.00 | 0.00 | 0.00 | 43 | 1009.0 |